sat.trackr.live / text

‹ back to catalog

STARLINK-30951

NORAD 58439 · 2023-183C

PAYLOAD ACTIVE UNKNOWN

§ Identity

Operator
Country
US
Launch date
2023-11-28
Launch site
AFETR
Launch vehicle
Mass (kg)
RCS (m²)

Purposes: comms

External: N2YO · Heavens-Above · Gunter

§ Orbital elements

Epoch: 2026-05-25T04:44:31.699104Z

Period
94.27 min
Inclination
43.0021°
Eccentricity
0.0001475
Mean motion
15.27583032 rev/d
Perigee alt
482.0 km
Apogee alt
484.1 km
Semi-major
6,861.2 km
B*
1.9978e-4
RAAN
329.6794°
Arg perigee
277.9016°
Mean anomaly
82.1668°
Rev number
13,843

§ Raw data

STARLINK-309511 58439U 23183C   26145.19758911  .00005240  00000+0  19978-3 0  99922 58439  43.0021 329.6794 0001475 277.9016  82.1668 15.27583032138436

JSON: /api/v1/satellites/58439 · /tle

For live sub-satellite position, see the globe view (requires WebGL).

§ Visibility from observer

Set your observer location to see the next 7 days of passes ≥ 10°. The values pass through the URL so the page stays shareable.

No JS? Fill the form by hand. The geolocation button needs JavaScript.